Location: Keppel Henge
(44.7900°N, 80.9447°W)
Time: 22:46:43
(UTC-04:00)

ISS - Pass Details

Date: 14 October 2017
Orbit: 401 x 408 km, 51.6° (Epoch: 22 October)

Event Time Altitude Azimuth Distance (km) Brightness Sun altitude
Rises 19:24:45 0° 298° (WNW) 2,325 1.1 -8.6°
Reaches altitude 10° 19:26:51 10° 295° (WNW) 1,464 0.1 -9.0°
Maximum altitude 19:30:05 59° 215° (SW) 471 -3.3 -9.6°
Drops below altitude 10° 19:33:19 10° 135° (SE) 1,460 -1.4 -10.2°
Enters shadow 19:33:46 - 133° (SE) 1,644 -1.2 -10.2°
